Location: Atherton
(17.2661°S, 145.4859°E)
Time: 22:27:08
(UTC+10:00)

BlueWalker 3 - Pass Details

Date: 22 April 2026
Orbit: 447 x 458 km, 53.2° (Epoch: 11 May)

Event Time Altitude Azimuth Distance (km) Brightness Sun altitude
Exits shadow 04:24:33 15° 117° (ESE) 1,287 4.6 -30.1°
Drops below altitude 10° 04:26:06 10° 91° (E) 1,574 5.4 -29.7°
Sets 04:28:50 0° 69° (ENE) 2,437 6.5 -29.1°
